This demonstration page uses our WeatherBlox Daily Observations layout. Learn more.

Left ArrowRight Arrow

41.86663, -103.66717

Hourly Observations for February 23, 2018

Temp ( °F °C ) Dew Point ( °F °C ) Humidity (%) Winds ( mph kmh ) Pressure ( in mb ) Visibility ( mi km ) Precip ( " mm )
12:53 am 00:53 Cloudy 10 -12.2 7 -13.9 87 87 Calm 30.26 1025 9 14 0.00 0.00
1:53 am 01:53 Mostly Cloudy 9 -12.8 6 -14.4 88 88 NNW 6 9 30.25 1025 9 14 0.00 0.00
2:53 am 02:53 Cloudy 11 -11.7 8 -13.3 88 88 NNW 8 13 30.24 1024 10 16 0.00 0.00
3:53 am 03:53 Partly Cloudy 11 -11.7 8 -13.3 88 88 NNW 7 11 30.23 1024 10 16 0.00 0.00
4:53 am 04:53 Clear 9 -12.8 5 -15 84 84 Calm 30.26 1025 10 16 0.00 0.00
5:53 am 05:53 Clear 7 -13.9 3 -16.1 84 84 Calm 30.29 1026 10 16 0.00 0.00
6:53 am 06:53 Sunny 3 -16.1 0 -17.8 87 87 Calm 30.34 1027 8 13 0.00 0.00
7:53 am 07:53 Mostly Sunny 7 -13.9 2 -16.7 80 80 NNW 6 9 30.34 1027 10 16 0.00 0.00
8:53 am 08:53 Mostly Cloudy 13 -10.6 8 -13.3 81 81 NW 6 9 30.34 1027 10 16 0.00 0.00
9:53 am 09:53 Mostly Sunny 19 -7.2 11 -11.7 71 71 NW 3 6 30.32 1027 10 16 0.00 0.00
10:53 am 10:53 Sunny 21 -6.1 11 -11.7 65 65 E 6 9 30.32 1027 10 16 0.00 0.00
11:53 am 11:53 Sunny 21 -6.1 13 -10.6 71 71 ESE 10 17 30.30 1026 10 16 0.00 0.00
12:53 pm 12:53 Sunny 23 -5 12 -11.1 63 63 ESE 12 19 30.25 1024 10 16 0.00 0.00
1:53 pm 13:53 Sunny 24 -4.4 11 -11.7 57 57 E 14 22 30.23 1024 10 16 0.00 0.00
2:53 pm 14:53 Partly Cloudy 25 -3.9 14 -10 63 63 E 13 20 30.21 1023 10 16 0.00 0.00
3:53 pm 15:53 Sunny 26 -3.3 16 -8.9 66 66 E 12 19 30.19 1022 10 16 0.00 0.00
4:53 pm 16:53 Mostly Cloudy 24 -4.4 15 -9.4 68 68 E 9 15 30.20 1023 10 16 0.00 0.00
5:53 pm 17:53 Clear 18 -7.8 12 -11.1 77 77 E 10 17 30.21 1023 10 16 0.00 0.00
6:53 pm 18:53 Clear 19 -7.2 13 -10.6 77 77 E 9 15 30.21 1023 10 16 0.00 0.00
7:53 pm 19:53 Clear 19 -7.2 14 -10 81 81 ESE 5 7 30.19 1023 10 16 0.00 0.00
8:53 pm 20:53 Clear 19 -7.2 14 -10 81 81 E 3 6 30.18 1022 10 16 0.00 0.00
9:53 pm 21:53 Cloudy 21 -6.1 17 -8.3 85 85 E 9 15 30.12 1020 10 16 0.00 0.00
10:49 pm 22:49 Cloudy with Light Snow 21 -6 18 -8 86 86 ESE 10 17 30.18 1022 3 4 0.00 0.03
10:53 pm 22:53 Cloudy with Light Snow 22 -5.6 19 -7.2 89 89 ESE 10 17 30.08 1019 3 5 0.00 0.03
11:53 pm 23:53 Cloudy 21 -6.1 18 -7.8 88 88 ESE 8 13 30.08 1019 8 13 0.00 0.03

Powered by AerisWeather